Las Vegas, NM

12:06 AM MDT on July 26, 2017 (GMT -0600)
Las Vegas Municipal

Weather History for KLVS - September, 2013

Change the Weather History Date:

Monday, September 2, 2013

  Actual Average Record
Temperature  
Mean Temperature 66 °F -  
Max Temperature 78 °F 77 °F 90 °F (2012)
Min Temperature 55 °F 50 °F 41 °F (1976)
Cooling Degree Days 1    
Growing Degree Days 16 (Base 50)    
Moisture  
Dew Point 54 °F    
Average Humidity 72    
Maximum Humidity 93    
Minimum Humidity 44    
Precipitation  
Precipitation 0.00 in - - ()
Sea Level Pressure  
Sea Level Pressure 30.06 in    
Wind  
Wind Speed 6 mph (WSW)    
Max Wind Speed 16 mph    
Max Gust Speed 23 mph    
Visibility 10 miles    
Events Thunderstorm    
Averages and records for this station are not official NWS values.
T = Trace of Precipitation, MM = Missing Value Source: NWS Daily Summary

Daily Weather History Graph

Daily Weather History Graph

Search for Another Location

Airport or City:

Trip Planner

Search our weather history database for the weather conditions in past years. The results will help you decide how hot, cold, wet, or windy it might be!

Date:

Astronomy

Sep. 02, 2013 Rise Set
Actual Time 6:33 AM MDT 7:25 PM MDT
Civil Twilight 6:07 AM MDT 7:51 PM MDT
Nautical Twilight 5:36 AM MDT 8:22 PM MDT
Astronomical Twilight 5:05 AM MDT 8:54 PM MDT
Moon 3:56 AM MDT (9/2) 5:38 PM MDT (9/2)
Length of Visible Light 13h 44m
Length of Day
12h 52m
Waning Crescent, 7% of the Moon is Illuminated
Sep 2
Waning Crescent
Sep 5
New
Sep 12
First Quarter
Sep 19
Full
Sep 26
Last Quarter

Hourly Weather History & Observations

Time (MDT) Temp. Dew Point Humidity Pressure Visibility Wind Dir Wind Speed Gust Speed Precip Events Conditions
12:53 AM 59.0 °F 53.1 °F 81% 30.08 in 10.0 mi NNW 4.6 mph - N/A   Overcast
1:53 AM 57.9 °F 54.0 °F 87% 30.06 in 10.0 mi North 4.6 mph - N/A   Mostly Cloudy
2:53 AM 57.0 °F 52.0 °F 83% 30.03 in 10.0 mi North 8.1 mph - N/A   Mostly Cloudy
3:53 AM 55.9 °F 52.0 °F 87% 30.01 in 10.0 mi NE 5.8 mph - N/A   Clear
4:53 AM 57.0 °F 51.1 °F 81% 30.02 in 10.0 mi North 3.5 mph - N/A   Partly Cloudy
5:53 AM 60.1 °F 50.0 °F 69% 30.04 in 10.0 mi Calm Calm - N/A   Mostly Cloudy
6:53 AM 57.9 °F 51.1 °F 78% 30.07 in 10.0 mi Calm Calm - N/A   Clear
7:53 AM 57.9 °F 52.0 °F 81% 30.10 in 10.0 mi Calm Calm - N/A   Clear
8:53 AM 63.0 °F 53.1 °F 70% 30.10 in 10.0 mi Calm Calm - N/A   Clear
9:53 AM 69.1 °F 55.0 °F 61% 30.09 in 10.0 mi South 11.5 mph - N/A   Clear
10:53 AM 71.1 °F 54.0 °F 55% 30.07 in 10.0 mi South 12.7 mph - N/A   Clear
11:53 AM 73.9 °F 53.1 °F 48% 30.05 in 10.0 mi SSW 16.1 mph - N/A   Clear
12:53 PM 75.9 °F 55.0 °F 48% 30.01 in 10.0 mi SSW 13.8 mph 23.0 mph N/A   Clear
1:53 PM 77.0 °F 55.9 °F 48% 29.99 in 10.0 mi South 12.7 mph 19.6 mph N/A Thunderstorm Clear
2:53 PM 72.0 °F 48.9 °F 44% 30.00 in 10.0 mi WNW 15.0 mph 20.7 mph N/A Thunderstorm Thunderstorm
3:53 PM 68.0 °F 54.0 °F 61% 30.00 in 10.0 mi WNW 6.9 mph - 0.00 in   Mostly Cloudy
4:19 PM 64.4 °F 55.4 °F 73% 30.30 in 10.0 mi West 15.0 mph 20.7 mph N/A Thunderstorm Partly Cloudy
4:53 PM 64.0 °F 54.0 °F 70% 30.04 in 10.0 mi SW 13.8 mph - N/A Thunderstorm Scattered Clouds
5:35 PM 62.6 °F 55.4 °F 77% 30.30 in 10.0 mi SSE 10.4 mph - N/A   Clear
5:53 PM 62.1 °F 55.0 °F 78% 30.04 in 10.0 mi South 8.1 mph - N/A   Clear
6:53 PM 63.0 °F 54.0 °F 72% 30.02 in 10.0 mi Calm Calm - N/A   Scattered Clouds
7:53 PM 62.1 °F 55.9 °F 80% 30.02 in 10.0 mi West 5.8 mph - 0.00 in   Partly Cloudy
8:53 PM 62.1 °F 55.9 °F 80% 30.04 in 10.0 mi SSE 4.6 mph - N/A   Clear
9:53 PM 57.9 °F 55.9 °F 93% 30.05 in 10.0 mi SSW 6.9 mph - N/A   Clear
10:53 PM 61.0 °F 53.1 °F 75% 30.03 in 10.0 mi WNW 4.6 mph - N/A   Clear
11:53 PM 57.0 °F 55.0 °F 93% 30.03 in 10.0 mi NNE 4.6 mph - N/A   Clear